GFSMA_925_rhum_195.txt.gz
RH
38 37 36 34 34 34 35 36 38 36 34 32 35 41 44 47 42 36 34 37 46 49 58 82 87 96 98 97 92 94 90 88 90 90 84 82 86 80 77 73 78 80 74
40 40 39 34 36 37 39 40 40 40 39 36 31 31 37 41 46 49 46 40 41 43 45 43 73 79 82 85 86 92 92 89 85 87 90 93 88 85 85 80 75 78 78
44 44 40 39 37 42 44 46 46 45 44 42 40 34 31 35 39 43 47 48 48 51 53 50 47 68 75 81 80 77 77 88 89 84 82 86 92 92 86 85 85 82 80
43 42 39 38 42 50 50 52 54 54 53 49 45 43 43 41 42 43 43 46 50 52 56 58 58 49 51 59 75 74 73 74 78 81 81 80 85 91 94 94 93 89 86
43 43 40 43 47 52 54 56 59 61 61 58 55 49 49 50 52 52 51 51 52 55 60 58 60 56 52 50 59 71 70 74 86 90 82 81 82 82 78 79 89 96 97
47 45 46 48 51 51 50 55 61 64 64 63 62 58 57 59 62 60 57 57 59 62 63 64 65 70 61 60 64 73 76 76 75 79 82 82 83 81 80 79 82 75 72
53 50 48 51 50 49 51 58 61 66 63 64 67 54 58 63 59 59 59 60 64 62 62 61 60 60 64 63 60 58 56 57 66 76 78 79 80 83 86 87 91 82 59
57 51 49 52 50 53 54 58 60 66 65 66 70 68 56 59 58 58 59 59 62 62 61 62 62 61 63 63 64 63 56 54 54 73 77 78 79 82 85 86 86 85 90
63 58 55 55 52 54 57 60 63 66 69 71 76 74 62 55 53 57 60 58 59 58 60 62 64 62 62 62 62 64 66 61 52 76 78 80 82 83 83 83 87 91 92
67 61 57 56 55 55 57 60 55 65 66 77 79 75 72 67 58 54 54 59 59 55 55 59 58 60 60 64 65 68 67 58 60 82 82 82 81 81 80 79 79 83 88
67 64 60 58 58 58 59 63 65 64 63 72 82 85 82 68 57 58 61 49 50 51 53 52 56 56 60 64 68 72 76 67 80 84 82 83 83 81 78 78 78 80 84
64 63 60 56 55 58 62 62 62 64 66 66 71 78 79 80 72 64 63 62 64 56 52 52 52 56 58 64 66 70 71 72 73 90 88 85 84 82 81 80 80 81 81
60 61 60 54 51 51 58 62 62 69 72 72 72 65 68 74 71 69 72 67 66 62 58 53 52 56 58 61 67 73 78 74 75 82 88 89 88 85 88 91 91 87 84
61 63 63 55 52 51 54 57 61 64 64 67 70 69 66 63 61 62 66 68 73 61 57 48 50 53 60 68 70 70 68 67 62 68 87 94 95 96 97 96 98 99 99
63 61 60 57 53 51 50 53 56 57 57 57 61 64 66 62 60 64 69 76 70 74 63 45 48 55 65 64 57 59 54 54 60 67 68 74 79 75 78 80 86 79 77
63 63 61 57 53 50 49 51 52 52 53 54 54 57 57 57 57 63 66 68 66 66 71 55 52 51 45 42 52 54 62 64 67 70 73 72 72 73 76 77 82 75 69
64 62 59 58 56 52 50 48 48 48 50 52 52 52 55 56 57 58 58 62 66 65 66 58 51 44 41 46 54 62 70 71 68 66 72 75 80 77 79 78 81 73 74
65 64 62 60 58 56 54 52 50 49 49 51 51 51 52 51 50 53 56 57 58 60 61 62 52 48 50 54 58 68 70 68 75 80 78 80 79 72 70 76 81 74 94
62 63 64 62 60 58 58 56 55 54 52 52 52 54 55 54 52 51 52 53 54 53 51 52 55 55 58 60 63 62 65 68 76 72 77 79 78 87 84 77 76 82 83
56 58 59 60 62 62 61 61 61 61 60 58 57 58 59 59 56 54 55 55 55 57 57 57 60 65 64 65 67 70 71 69 74 80 76 76 75 80 85 87 84 82 81
50 56 59 58 58 59 58 60 62 68 67 67 66 64 63 64 65 64 62 59 58 61 64 64 66 66 65 65 64 64 77 78 80 74 70 83 80 82 83 84 82 84 92
45 51 51 52 54 53 50 46 47 79 75 72 70 70 69 68 70 73 73 77 81 78 69 68 68 66 64 63 64 68 77 82 82 65 77 73 74 73 71 79 82 83 85
47 48 47 49 50 49 47 28 29 42 69 71 71 72 72 68 67 71 74 76 81 90 92 90 83 71 63 63 65 68 76 79 79 76 72 76 72 76 70 82 82 82 87
50 51 51 50 48 43 41 25 23 24 53 58 61 64 68 70 70 72 76 78 77 76 75 77 85 86 81 75 73 73 76 80 78 79 78 82 75 75 75 70 79 79 83
51 52 52 51 51 39 38 38 29 36 50 54 55 55 61 67 68 72 86 90 86 83 81 79 79 77 74 71 76 83 86 85 85 77 71 78 80 82 81 68 72 83 86
50 48 48 47 42 36 23 21 30 36 47 49 49 51 53 58 65 88 97 92 87 82 81 83 85 83 84 85 86 94 96 90 87 84 72 77 82 87 91 74 87 87 86

GFSMA_925_rhum_198.txt.gz
RH
39 39 38 36 35 36 38 40 41 41 41 40 36 33 34 41 47 46 40 36 37 41 46 52 81 87 96 98 97 90 92 92 89 90 92 87 83 86 85 79 74 75 84
42 42 39 39 38 38 42 45 47 47 47 45 43 40 32 33 40 46 48 47 47 45 43 44 57 78 84 86 89 90 91 92 90 87 87 90 91 87 86 86 82 75 74
44 42 40 39 39 44 48 51 54 55 56 56 51 46 42 33 33 38 44 47 50 51 53 54 55 67 72 76 78 83 81 78 80 83 83 83 84 88 95 92 86 86 83
43 43 41 39 43 48 52 54 57 60 63 63 60 55 50 47 43 42 44 46 47 50 54 58 60 60 62 78 79 78 78 76 74 75 72 80 80 83 92 98 98 94 89
46 45 43 45 48 51 51 53 57 62 66 66 65 60 54 51 52 53 52 51 51 53 54 58 62 61 56 53 68 70 69 72 78 82 82 79 83 88 89 88 85 81 89
52 50 47 49 51 51 50 53 59 62 67 66 66 67 64 60 61 62 60 58 59 61 62 63 66 68 61 58 62 70 73 74 75 74 78 79 78 80 81 81 88 91 88
54 54 49 50 52 52 53 56 60 64 68 69 70 72 63 61 62 61 61 61 64 63 62 62 62 64 66 66 64 60 58 58 65 72 79 81 80 80 80 83 85 87 91
58 59 50 53 53 52 55 59 62 66 69 70 80 82 87 69 61 59 59 60 62 63 62 63 62 62 63 64 65 65 63 58 59 76 78 79 81 84 86 86 86 88 88
63 65 57 55 54 53 55 59 61 61 68 69 75 83 89 91 74 60 60 61 59 60 59 61 63 63 62 62 63 65 68 68 58 79 80 83 84 85 84 83 82 84 91
66 67 62 56 56 55 58 60 62 66 66 73 75 72 72 77 85 79 60 60 61 58 54 56 56 59 60 60 64 68 70 70 67 83 82 82 82 81 80 80 78 79 81
62 66 63 56 55 57 59 62 64 64 66 68 73 77 75 72 67 72 82 71 60 59 57 57 55 55 56 60 64 70 74 74 73 91 88 85 82 81 79 78 76 77 82
61 65 64 56 52 53 57 62 62 64 68 72 73 72 74 74 87 80 84 82 75 64 62 52 51 54 56 62 67 69 70 72 72 84 87 86 85 83 82 79 77 80 85
60 63 62 59 53 50 51 56 61 63 68 72 75 75 71 68 69 67 67 83 83 68 65 54 53 54 57 61 64 66 70 74 71 79 73 79 87 86 94 82 90 87 83
63 63 64 61 54 51 51 53 56 59 62 60 62 68 70 68 66 64 65 71 86 78 63 59 48 55 60 67 67 67 64 64 63 61 66 69 79 93 96 95 94 94 94
64 62 59 59 56 53 50 50 52 55 56 57 57 60 63 65 62 58 66 68 75 91 85 57 51 59 54 48 46 46 51 51 63 65 68 73 72 75 88 90 95 96 97
64 64 63 61 58 54 51 49 51 52 52 53 54 54 56 57 58 57 63 65 71 71 74 64 61 58 50 46 41 44 54 65 68 70 69 72 76 78 79 78 84 81 86
66 64 62 60 58 57 54 51 49 48 49 50 51 53 52 53 57 57 58 59 61 66 80 71 66 62 58 45 46 54 61 63 66 66 80 75 73 73 76 78 80 82 80
59 65 66 64 62 60 58 55 53 52 51 51 51 52 52 52 54 51 52 55 57 58 62 72 66 59 52 50 55 57 62 63 68 68 74 75 74 79 79 71 71 76 80
50 55 60 61 62 62 61 60 58 57 56 55 54 54 54 55 56 54 52 53 54 54 56 55 60 58 57 58 63 64 64 64 67 73 74 75 75 76 79 85 82 75 70
44 49 52 55 58 60 60 61 62 63 63 62 62 60 60 59 60 60 57 55 55 56 56 59 61 65 62 64 65 67 67 71 72 69 66 73 69 77 90 87 87 87 86
41 44 45 47 51 53 55 56 54 47 52 62 68 68 68 66 65 64 65 64 62 61 62 65 71 73 74 69 68 66 69 69 69 63 65 74 80 80 79 80 81 81 84
40 42 42 44 45 42 47 49 40 35 44 57 68 70 71 71 70 69 70 72 75 78 76 79 78 80 76 70 65 65 68 78 90 68 71 67 60 54 54 72 80 84 83
39 40 42 44 42 39 36 44 39 28 28 34 52 66 68 67 70 68 69 73 75 77 85 89 97 92 87 80 72 69 75 77 79 74 79 76 70 64 58 70 83 84 82
43 43 42 43 44 31 30 36 38 32 23 24 39 48 54 55 58 65 70 73 73 74 78 80 88 83 82 80 84 84 85 82 80 80 78 83 73 70 70 68 64 66 81
41 39 36 37 40 29 28 32 37 39 35 25 27 34 41 47 48 53 65 75 78 66 65 77 81 81 81 80 80 82 88 94 88 84 77 81 77 79 71 53 57 65 75
45 45 45 43 41 40 33 35 37 44 48 39 34 34 38 46 47 50 64 70 89 65 72 77 82 85 84 79 83 86 91 99 92 88 75 76 79 78 76 65 81 94 86

GFSMA_925_rhum_201.txt.gz
RH
36 36 36 35 37 36 39 42 47 48 52 50 46 44 43 36 32 40 46 48 51 41 44 48 51 58 82 89 92 91 90 92 92 91 89 91 90 87 87 86 82 80 77
41 39 37 36 36 41 45 48 52 56 57 57 56 53 47 43 34 32 41 47 49 49 46 45 47 63 74 87 88 89 88 89 93 90 88 88 90 92 91 86 87 84 77
44 41 41 38 40 47 48 50 55 58 62 63 64 62 54 52 46 36 39 43 47 50 52 54 54 59 71 76 80 81 87 87 81 81 82 83 86 88 91 94 92 89 87
48 44 44 41 46 50 50 51 56 58 63 67 66 65 61 55 50 47 48 50 50 51 52 54 57 59 61 76 82 83 82 83 79 76 76 70 76 80 81 91 98 99 96
50 49 48 45 50 52 50 52 57 62 64 69 68 69 65 60 56 55 53 53 53 53 54 55 59 61 60 56 69 72 69 71 75 82 80 80 77 76 82 87 92 91 91
56 52 52 47 51 52 51 54 61 61 66 73 70 67 60 61 63 62 61 61 60 61 62 64 66 68 63 62 71 84 85 84 84 82 81 82 82 81 80 82 85 89 94
58 55 55 48 52 52 52 58 62 63 65 73 77 69 66 64 63 62 63 62 64 64 64 63 63 65 67 69 67 65 64 62 77 82 82 83 83 82 81 82 84 86 87
61 59 60 55 53 53 52 57 62 63 66 67 80 89 93 73 60 62 62 63 63 63 63 63 62 63 63 63 65 66 65 63 68 79 79 80 82 84 86 86 86 87 90
64 66 66 58 54 54 53 59 62 64 71 67 75 85 93 94 86 64 63 64 62 63 62 65 63 61 62 61 62 65 68 68 65 79 82 84 85 85 84 83 82 82 83
60 66 66 60 54 53 55 60 62 64 68 72 65 69 73 81 92 88 60 63 62 59 58 56 55 56 61 59 63 65 70 71 73 87 86 83 82 80 80 79 78 74 77
58 63 66 62 53 51 55 59 62 62 67 74 73 74 73 71 79 80 87 78 63 59 57 56 55 54 55 57 63 66 70 73 73 84 86 84 83 81 79 76 77 75 84
60 65 65 63 54 50 52 56 60 60 66 71 77 78 74 76 82 81 89 86 82 66 52 53 52 56 58 60 67 70 71 71 78 82 86 82 81 81 82 82 78 79 86
63 63 65 62 60 52 50 50 55 59 60 68 72 75 78 74 70 71 74 83 87 69 63 51 55 60 69 68 71 74 70 68 68 68 72 74 75 79 89 84 93 83 88
66 65 66 65 62 56 52 51 52 55 58 62 61 63 68 70 71 68 70 77 88 83 69 61 69 62 56 51 48 47 55 54 46 54 69 73 78 85 83 86 95 92 91
64 65 65 64 61 58 54 51 50 51 54 55 56 58 60 60 64 62 58 71 75 90 90 61 54 57 51 44 47 43 43 44 56 61 67 72 69 75 80 89 90 94 97
64 63 63 63 61 58 57 54 51 50 50 51 52 53 54 55 57 59 59 67 71 77 88 67 62 59 57 53 48 40 48 55 63 63 62 70 73 72 73 78 80 79 84
56 63 65 63 61 59 57 56 54 51 50 50 49 49 50 52 53 55 57 58 61 65 87 74 69 64 61 54 43 43 54 58 63 63 64 62 73 76 76 75 75 77 76
43 52 59 64 64 62 61 59 58 56 55 54 53 53 52 52 53 54 54 53 54 57 66 77 64 59 54 48 49 50 57 66 66 66 68 71 77 77 83 77 80 72 72
35 39 51 56 58 60 60 60 61 60 59 59 58 58 58 57 56 56 56 55 54 55 56 60 65 61 57 54 52 57 61 64 65 68 71 71 68 73 64 81 77 79 80
33 36 39 42 43 49 52 54 57 60 60 59 59 64 66 65 64 62 62 61 60 59 59 60 60 62 63 62 63 67 66 66 66 64 63 60 66 72 81 90 88 85 86
34 39 42 39 40 40 42 46 52 50 37 35 41 52 62 68 70 70 68 66 66 66 66 69 73 73 76 74 73 66 70 66 70 67 63 57 68 60 53 46 52 55 65
31 36 35 34 35 33 33 39 45 42 28 25 25 28 42 59 65 69 71 71 72 74 76 83 84 84 81 78 77 74 73 81 91 69 70 64 66 57 50 49 51 58 73
32 32 34 34 32 31 32 30 33 40 36 28 26 28 40 47 53 58 62 66 71 76 80 89 94 94 93 86 86 88 85 83 86 78 78 81 75 72 51 53 62 77 83
36 35 35 35 35 27 29 31 33 39 38 31 31 28 33 34 36 48 53 56 58 64 66 71 83 84 88 83 86 87 87 92 93 88 86 88 80 73 58 56 56 59 59
36 41 43 43 42 38 36 36 38 39 39 33 32 30 31 32 31 41 55 58 54 48 47 53 56 75 84 86 88 88 90 99 90 87 87 87 84 76 72 64 52 53 62
45 47 46 45 45 42 34 36 38 41 45 41 35 34 35 38 41 45 55 56 67 56 49 47 46 45 51 74 83 84 80 91 83 82 77 89 84 81 75 56 63 83 87

GFSMA_925_rhum_207.txt.gz
RH
41 41 39 39 37 37 43 43 43 48 47 45 50 60 61 57 49 50 38 35 42 51 60 63 66 70 87 81 70 90 92 97 89 86 89 89 88 86 87 89 88 84 79
47 47 44 43 40 42 46 47 46 47 49 49 54 64 66 62 57 52 44 40 43 50 55 58 69 70 74 79 71 79 91 91 100 95 94 94 92 91 92 93 92 90 90
51 52 49 46 43 44 47 45 42 46 46 43 53 60 65 65 60 55 53 52 48 52 58 65 73 71 64 73 79 82 79 88 94 86 85 86 85 84 88 91 95 97 93
53 54 56 50 46 46 47 45 46 50 47 52 50 50 63 65 62 55 58 58 55 55 56 57 59 59 57 60 74 82 85 88 88 85 81 79 77 78 85 87 91 95 96
55 56 59 53 49 48 47 46 48 56 54 54 48 64 66 65 65 64 63 62 61 60 60 60 62 64 62 73 71 77 76 83 86 87 84 87 84 80 78 80 88 91 95
59 62 59 56 56 52 47 46 51 52 53 63 56 74 70 68 68 68 68 68 70 68 68 69 71 69 68 86 86 86 90 89 89 89 87 85 84 83 82 84 84 86 89
62 64 61 64 61 54 50 50 55 56 52 68 69 69 70 65 69 70 72 70 68 68 67 67 67 70 69 71 72 77 83 81 81 82 83 83 85 86 87 89 90 89 88
64 66 64 66 64 56 50 50 58 60 64 69 87 94 95 74 66 72 70 68 64 65 67 68 66 66 65 62 62 63 65 78 79 82 84 87 88 88 88 87 87 87 87
58 62 66 68 67 57 50 52 59 62 68 66 73 83 94 96 94 70 68 66 64 61 58 59 59 59 66 64 63 63 66 71 83 85 85 85 84 82 81 78 80 79 79
58 59 64 68 67 55 50 52 59 60 63 74 69 72 76 86 94 94 70 67 63 60 52 48 50 56 62 64 65 69 71 74 84 85 84 81 80 77 78 79 80 77 82
60 61 64 69 67 58 49 50 55 57 59 69 77 81 78 77 86 92 94 84 57 53 58 58 49 54 59 63 70 76 77 79 79 78 83 79 81 77 76 85 85 89 90
58 64 67 69 68 64 56 50 51 53 57 61 72 80 83 82 83 86 91 89 88 64 64 71 67 71 74 78 84 83 78 73 72 72 70 67 67 75 79 83 84 86 83
60 66 67 68 68 66 60 53 51 52 56 59 65 67 74 82 82 83 88 89 92 75 61 62 60 61 62 64 64 59 54 51 48 61 66 68 76 81 83 85 85 86 85
63 64 65 67 67 64 60 57 53 51 51 54 58 62 63 64 71 77 78 81 89 88 76 66 63 60 59 58 51 46 43 43 43 46 67 77 79 83 84 86 87 87 86
55 62 63 63 65 64 63 60 57 54 52 52 54 56 58 58 60 65 69 69 80 90 88 64 65 65 61 58 53 47 41 36 36 40 56 60 60 65 91 88 86 88 87
38 42 50 60 62 62 60 59 57 55 53 51 51 52 53 53 54 56 59 65 72 82 92 74 64 60 56 52 49 49 45 44 40 46 53 58 66 64 64 91 82 83 90
29 30 36 46 57 63 62 61 60 58 58 55 54 53 52 52 53 54 56 60 65 75 94 80 70 60 54 52 50 50 49 49 50 54 66 66 67 68 80 83 83 76 68
27 27 28 33 41 51 58 62 62 61 61 60 58 59 57 58 57 56 57 57 59 61 74 81 67 61 58 54 55 54 53 54 55 58 65 66 69 71 71 84 81 75 82
27 26 27 28 33 39 45 50 55 56 58 60 61 62 60 60 61 60 61 62 61 62 64 71 71 65 62 61 59 56 55 55 57 60 61 66 68 66 56 65 78 78 87
29 27 26 26 29 34 36 42 46 49 52 57 55 48 42 49 59 64 68 69 68 68 68 70 72 72 70 68 65 66 64 62 60 54 52 57 61 64 63 59 60 54 48
33 31 29 26 29 32 31 34 38 39 46 46 39 29 29 33 45 60 70 70 74 75 75 76 80 82 82 79 75 75 78 75 61 67 68 70 70 68 66 62 58 60 55
38 35 32 30 28 29 31 34 39 42 43 41 39 35 28 23 22 35 55 70 75 79 82 84 81 84 81 81 82 84 88 92 94 78 80 78 69 61 54 53 57 63 59
42 40 36 35 32 32 34 36 37 41 41 35 36 40 36 30 28 30 38 44 49 66 74 80 90 86 87 76 82 88 87 89 96 86 92 84 78 59 53 47 53 59 60
46 44 40 38 38 33 42 47 46 46 45 43 45 45 44 39 38 35 34 37 36 41 45 56 67 58 63 64 72 71 87 99 99 83 81 86 75 67 47 45 49 58 60
50 46 43 42 41 46 49 47 48 46 43 39 39 40 40 37 35 39 46 48 44 40 39 47 51 51 53 58 76 97 88 93 93 87 77 81 79 74 66 52 55 60 73
56 50 44 42 44 51 45 47 49 51 52 45 39 38 39 39 36 40 51 56 63 46 46 50 56 59 68 67 64 66 75 98 96 86 68 86 83 78 68 58 59 65 62

GFSMA_925_rhum_210.txt.gz
RH
45 44 44 42 40 38 41 40 38 38 38 40 35 49 60 60 56 52 51 38 40 44 67 67 68 70 53 67 62 70 86 93 89 92 93 91 90 88 86 85 85 84 85
50 51 51 49 45 42 43 42 39 39 41 42 38 49 57 63 60 58 54 46 45 48 58 70 72 72 82 70 65 57 62 81 89 95 99 93 89 88 89 88 87 87 86
52 53 55 55 49 44 44 40 36 38 38 37 37 40 56 61 60 59 57 53 53 58 64 78 77 77 72 80 86 69 66 84 86 93 75 99 96 93 93 93 93 93 91
56 54 56 58 52 48 47 41 39 35 39 45 39 60 69 68 65 62 62 59 56 58 60 64 60 58 59 56 79 80 76 64 87 84 67 94 78 81 88 88 92 94 95
60 58 59 58 56 54 49 42 39 45 42 49 49 76 74 72 71 70 68 67 68 65 66 69 72 70 83 80 73 80 82 91 84 88 86 83 82 82 80 82 88 92 94
58 60 63 60 62 56 50 43 44 42 52 62 58 75 73 74 73 72 71 70 70 69 70 75 73 75 83 88 89 91 92 92 92 90 89 84 82 82 81 78 77 78 81
60 65 65 64 66 59 52 46 48 46 50 63 57 66 75 75 74 73 69 68 69 70 68 68 68 69 72 72 80 84 83 82 82 83 84 85 87 88 89 91 92 91 89
59 65 67 66 68 62 52 48 53 54 57 68 78 93 95 78 71 73 69 65 63 62 65 64 63 67 65 64 64 64 76 80 81 84 88 89 88 88 87 86 86 87 87
58 62 67 68 69 63 52 49 54 58 60 64 72 77 88 95 94 74 70 67 61 60 55 55 57 61 67 66 66 68 68 83 85 86 85 84 84 82 81 79 79 77 81
59 61 63 69 70 63 52 50 55 58 59 67 68 73 78 88 93 94 72 69 55 54 46 42 47 56 63 68 73 74 80 85 82 82 83 80 78 77 75 80 81 84 82
55 60 64 70 71 66 59 52 54 57 59 64 70 76 78 81 91 92 94 84 57 62 68 66 54 54 61 72 81 83 81 86 82 77 74 73 74 79 75 77 83 82 82
51 60 63 68 71 69 65 58 54 53 58 61 69 76 80 82 83 86 92 89 88 67 66 79 85 84 82 85 85 81 76 70 66 68 72 72 72 75 78 82 82 85 86
51 59 62 64 66 66 64 59 55 53 54 57 62 69 71 81 86 86 89 89 90 77 66 62 62 60 58 57 57 57 55 53 52 52 70 71 80 84 85 83 82 83 84
49 56 61 64 66 66 64 62 58 54 52 51 53 56 61 63 68 78 83 83 87 87 76 64 64 62 63 59 53 46 41 38 35 34 57 74 78 75 86 87 86 86 82
40 45 52 54 59 62 63 63 60 57 55 53 53 55 57 58 62 65 72 77 77 87 87 66 63 66 64 55 51 48 46 43 41 37 51 73 67 67 76 91 91 88 87
34 35 36 43 52 58 60 60 59 59 58 56 55 54 54 54 55 57 62 67 73 80 90 75 65 62 59 54 52 51 48 47 47 49 52 61 64 77 73 90 95 93 92
30 29 29 31 36 43 55 60 60 60 60 59 57 57 55 55 54 55 58 61 66 78 95 82 73 61 55 53 52 52 52 51 51 52 55 60 64 67 75 81 87 91 86
32 29 28 27 28 33 44 52 56 60 62 61 60 62 60 60 60 59 59 60 62 64 76 85 71 62 60 56 57 56 52 51 53 55 58 61 65 70 65 60 63 76 74
34 31 28 27 27 30 34 37 42 48 53 56 58 60 59 61 60 60 62 64 63 63 66 73 73 68 66 64 60 53 53 52 53 50 51 53 55 57 63 64 66 59 56
37 36 32 29 28 30 34 34 36 40 41 43 50 53 47 40 40 49 60 66 68 70 70 72 74 75 72 66 60 61 57 49 39 38 50 54 60 63 62 68 57 54 52
42 40 37 34 30 29 30 34 34 34 36 36 40 39 32 26 28 36 53 60 72 77 78 79 82 82 82 74 65 65 70 63 47 56 54 55 41 34 39 44 45 41 44
49 46 42 38 35 31 29 34 37 38 39 38 36 35 36 34 30 27 32 62 79 81 83 85 82 84 80 76 78 82 81 83 85 68 75 60 45 34 38 34 31 32 38
58 54 49 45 41 36 32 34 37 40 40 39 40 38 38 37 38 36 31 39 56 84 90 91 90 85 83 76 80 88 87 87 90 81 93 86 65 46 42 44 37 36 44
66 62 57 52 50 43 37 38 41 49 49 44 42 41 43 38 37 39 36 32 30 33 37 51 63 56 59 61 70 74 79 94 89 82 87 98 70 70 56 47 37 34 44
84 85 84 80 67 54 43 45 53 55 54 49 42 42 42 41 39 40 44 42 39 33 34 38 44 50 56 56 63 91 98 97 93 75 75 82 74 68 65 45 45 50 66
72 67 65 64 62 58 51 58 61 64 69 61 52 50 47 45 42 43 51 52 58 43 40 39 41 46 52 59 72 85 79 91 97 97 65 81 76 69 67 48 49 68 62

GFSMA_925_rhum_213.txt.gz
RH
45 49 49 48 46 41 38 38 36 33 32 31 29 32 38 52 58 53 52 45 39 42 44 76 65 73 57 49 61 68 55 47 91 95 85 99 96 84 80 85 86 89 92
49 52 53 54 51 46 43 42 38 35 34 34 32 33 38 50 57 58 57 52 52 48 52 72 72 76 75 65 66 88 92 41 62 92 87 84 97 94 86 82 86 88 91
54 54 54 56 55 49 47 44 37 34 34 31 35 59 64 65 64 62 60 57 58 63 68 82 81 80 79 80 78 96 85 78 58 92 86 85 95 100 96 90 89 88 88
59 58 56 59 56 54 52 45 38 34 32 38 56 76 73 68 67 68 65 62 61 60 63 61 58 59 70 74 76 82 98 83 79 84 91 83 86 89 98 96 97 96 95
55 60 59 62 59 60 53 46 39 43 42 47 71 78 75 74 74 73 70 70 70 68 68 70 70 77 90 84 72 80 93 88 93 75 72 77 83 76 76 98 93 97 98
58 61 63 64 63 62 55 46 43 42 46 54 66 81 79 77 75 72 72 71 70 69 72 75 73 77 82 87 90 89 93 98 96 84 55 85 87 87 86 75 72 77 84
56 63 67 66 66 65 56 48 46 46 50 54 61 78 82 78 74 69 69 69 69 68 67 67 68 68 69 70 84 87 84 84 85 86 85 88 90 90 92 93 92 90 90
51 57 63 67 67 67 56 48 50 54 52 62 74 82 74 73 75 73 68 67 63 60 60 62 62 67 66 71 69 66 84 83 86 89 89 89 88 87 86 86 85 87 87
54 58 61 67 68 68 55 49 53 57 65 60 70 74 58 70 75 78 76 68 55 52 50 51 56 64 68 69 69 74 83 88 87 87 86 84 84 82 83 81 81 78 88
53 57 60 65 70 68 60 52 51 55 56 69 65 72 78 88 72 65 72 75 60 56 60 53 48 59 68 73 75 78 81 85 82 82 82 83 83 78 75 82 86 84 80
47 56 62 67 71 70 65 60 53 54 55 62 70 79 81 86 93 77 68 66 65 69 75 74 63 67 76 82 84 83 76 76 77 76 75 75 74 74 82 87 88 89 93
45 54 58 64 70 71 67 65 57 53 53 57 62 70 79 76 74 74 71 71 74 71 68 81 88 89 89 86 82 77 72 66 60 68 75 73 78 82 85 85 84 82 86
42 52 58 62 65 67 66 63 60 56 54 55 58 64 68 76 85 89 84 76 72 74 72 65 64 60 57 54 52 50 48 46 42 39 62 69 79 79 80 83 83 84 84
35 42 49 54 58 62 64 64 62 59 56 54 55 58 61 65 69 76 84 78 68 67 73 67 66 65 67 58 51 46 42 40 38 36 42 74 72 55 59 90 89 91 90
32 34 35 38 47 55 60 61 61 59 58 57 55 55 56 57 62 65 71 84 71 63 59 64 65 65 68 57 50 47 45 43 43 41 39 56 61 63 63 63 81 92 89
32 30 29 28 33 43 55 60 59 59 59 58 56 56 55 54 57 58 60 68 80 73 65 73 70 62 62 55 51 49 48 46 47 47 47 56 62 70 72 76 82 87 92
34 32 30 28 26 27 36 50 58 61 61 60 59 59 57 56 56 56 57 60 68 85 76 71 70 62 58 53 51 52 51 49 47 48 49 53 58 64 71 76 62 68 74
36 35 33 31 28 25 25 32 43 51 57 58 57 60 59 60 61 60 60 60 62 63 80 71 75 70 59 55 53 51 49 50 49 52 54 58 64 74 78 65 58 63 60
37 38 37 34 31 28 26 26 31 37 42 48 51 54 54 58 59 59 61 64 64 65 68 80 72 70 67 62 61 51 47 46 42 39 40 48 57 61 60 65 68 56 54
41 41 40 38 36 32 30 29 32 33 36 39 41 44 49 53 48 42 45 54 63 71 76 81 80 79 77 68 67 70 59 49 41 38 49 51 57 59 58 60 65 59 53
49 48 46 44 42 39 35 32 33 34 34 34 34 36 40 40 33 31 38 43 60 76 84 84 82 84 82 78 69 70 82 68 53 55 58 59 43 32 32 35 38 35 32
60 59 56 53 50 46 42 39 37 37 36 39 39 36 36 35 34 33 32 34 44 65 84 89 83 80 78 78 69 68 74 74 53 59 61 59 36 33 32 31 28 24 22
69 68 64 61 58 54 49 46 42 44 45 45 44 41 40 38 34 36 34 33 40 76 81 79 86 84 82 70 74 83 84 86 74 64 77 73 50 52 40 36 32 25 21
76 81 81 78 74 64 58 54 51 49 48 48 50 50 50 44 39 41 41 40 34 33 46 82 83 63 58 63 69 66 74 85 86 83 82 85 70 70 53 40 31 28 32
73 72 69 69 69 68 67 68 63 68 73 70 62 58 59 57 49 53 58 51 44 38 36 41 44 45 51 56 62 71 96 100 90 82 77 87 78 73 53 46 40 42 83
57 58 58 68 75 78 80 86 93 94 98 96 85 69 61 61 52 50 68 63 68 44 42 43 49 48 48 62 83 95 95 95 88 88 73 90 80 69 69 55 50 65 69

GFSMA_925_rhum_219.txt.gz
RH
45 46 46 47 49 49 45 44 41 38 35 32 28 30 33 38 39 45 46 47 46 44 46 76 72 71 76 85 84 85 88 94 98 99 99 90 87 90 96 88 92 95 85
51 51 50 48 51 51 48 46 43 38 34 32 32 37 48 51 52 52 51 50 52 50 70 89 88 88 86 82 76 74 84 91 96 87 96 94 94 83 69 88 86 87 94
58 57 55 54 53 53 52 48 43 41 35 34 34 49 54 55 52 52 54 54 54 57 59 64 76 88 83 80 77 72 70 91 76 89 98 94 98 94 75 93 86 76 81
58 59 57 54 56 57 54 51 44 43 39 37 41 54 58 60 58 56 56 59 65 63 64 69 62 64 86 86 83 72 71 87 76 83 94 98 100 99 85 80 70 66 87
58 58 54 54 56 58 56 52 46 44 42 42 42 57 64 66 63 60 61 62 67 68 69 70 70 73 71 91 92 94 66 59 74 87 89 90 100 100 81 74 81 93 98
56 61 58 57 58 56 53 49 46 46 42 44 43 57 65 69 66 66 62 60 64 64 62 63 66 66 66 73 80 90 82 83 92 93 86 88 93 95 96 80 87 99 93
56 58 59 60 58 57 56 50 47 46 43 47 42 38 60 66 65 64 62 60 61 61 61 62 60 65 65 74 68 81 90 91 89 90 89 94 92 98 99 98 91 94 87
57 57 58 59 60 60 57 52 51 52 42 49 48 45 46 54 59 63 64 62 59 58 60 61 61 64 67 70 75 72 86 90 91 96 90 84 87 96 96 96 92 98 85
58 63 63 63 61 65 61 58 56 56 50 46 52 50 45 43 41 52 61 64 59 52 51 57 58 63 70 71 79 82 77 85 88 89 91 81 86 92 94 93 83 79 83
56 62 67 67 65 64 63 60 53 58 53 49 49 50 59 54 48 45 48 55 50 44 49 59 60 59 72 78 79 81 75 72 82 83 83 82 84 87 89 93 99 98 94
52 60 64 72 72 70 66 66 63 58 55 55 52 53 52 51 54 53 51 41 41 44 49 60 66 68 77 80 81 79 72 68 68 77 79 77 84 90 92 91 90 91 89
49 61 63 69 72 72 72 69 66 62 61 59 60 56 56 52 49 51 53 50 51 45 50 56 62 65 73 73 68 73 71 66 58 57 68 71 81 81 81 84 85 85 88
48 54 63 64 64 67 71 71 68 70 71 68 65 58 55 57 57 60 58 56 53 50 48 51 64 64 62 64 64 59 56 51 48 43 53 66 71 68 48 63 79 86 86
44 50 57 58 58 62 66 67 70 71 70 71 71 65 61 58 59 63 62 60 62 50 46 49 58 66 69 68 63 58 54 52 43 36 35 46 80 62 45 54 88 90 90
46 52 55 55 53 54 56 59 64 64 63 62 63 64 63 60 57 60 62 63 63 64 55 44 50 55 64 67 67 61 52 53 50 41 41 41 44 68 61 56 55 78 88
47 48 51 52 49 48 50 53 56 55 56 57 58 61 60 59 58 59 63 67 63 63 66 44 48 51 59 64 63 57 49 53 48 49 45 46 47 52 61 72 70 79 78
49 47 47 47 46 44 44 45 48 49 51 54 54 56 58 58 57 58 59 65 64 64 67 61 53 50 57 59 61 55 55 56 55 53 53 49 57 65 73 74 71 68 68
48 48 46 46 45 43 43 42 42 42 44 47 48 50 53 54 54 58 58 58 63 63 62 64 59 53 52 55 55 56 57 55 51 52 54 48 54 62 69 80 77 64 66
51 50 48 49 47 46 45 45 44 43 42 42 44 46 47 48 51 53 57 58 57 58 58 60 61 58 53 57 59 58 56 56 54 54 52 39 41 54 72 76 68 64 64
56 55 53 52 50 50 49 48 47 46 45 44 44 45 47 49 49 49 50 54 58 58 57 59 60 59 56 55 58 63 59 50 54 47 49 41 58 47 52 54 55 66 66
68 68 66 64 61 58 56 54 53 52 52 51 48 46 47 51 52 51 52 51 51 50 53 54 55 57 57 58 61 62 58 53 49 52 55 65 56 56 50 36 30 39 42
70 72 72 71 70 68 64 64 64 69 67 62 56 54 49 45 45 48 49 49 51 49 50 55 55 56 54 54 57 59 56 61 64 46 59 61 59 58 52 50 51 44 28
61 62 63 65 68 65 68 72 83 89 89 84 76 74 71 60 53 51 54 57 57 54 50 54 55 55 55 52 52 61 63 64 60 56 57 58 49 53 56 54 48 32 24
53 56 60 64 65 62 57 56 54 76 77 82 85 83 83 85 79 71 67 66 64 60 61 72 76 66 56 58 56 59 68 68 63 60 67 68 50 48 52 51 50 40 30
52 55 55 57 59 59 55 55 52 70 69 67 72 80 83 87 85 82 77 84 82 76 68 61 56 59 80 82 73 73 74 73 78 70 70 76 65 62 60 51 51 51 34
35 35 37 39 41 47 49 47 53 66 65 61 57 78 76 89 89 90 96 100 98 94 85 76 71 65 54 48 86 86 83 88 82 74 66 81 74 67 73 60 40 48 43

GFSMA_925_rhum_225.txt.gz
RH
48 50 50 52 52 53 50 50 47 43 39 36 34 44 54 57 55 54 53 54 56 69 77 78 81 85 81 78 74 72 77 77 83 93 93 89 84 86 94 88 96 97 95
49 54 53 53 54 54 51 52 48 43 41 38 35 53 60 61 58 54 57 59 65 68 85 81 82 84 80 74 76 84 78 76 75 80 90 89 92 93 81 80 92 92 99
50 50 54 54 56 53 55 54 45 44 41 39 35 55 64 64 60 61 64 64 67 70 74 80 84 82 82 82 86 89 94 87 80 77 86 81 81 78 74 75 80 95 91
48 47 54 55 56 54 56 53 46 44 42 43 36 47 66 67 65 63 63 63 64 65 66 67 69 79 82 82 82 91 91 93 82 82 81 82 78 76 79 80 78 77 79
53 48 53 56 57 55 57 53 45 46 46 44 38 43 66 66 67 65 63 64 63 63 63 62 65 71 74 78 86 84 86 82 78 79 82 87 84 82 88 99 99 99 94
47 48 56 59 59 57 58 53 49 45 46 47 38 39 52 66 66 63 63 63 63 62 62 61 61 72 74 73 74 92 89 94 84 86 84 79 81 96 86 77 94 97 98
42 43 56 60 60 60 60 56 51 47 49 50 40 39 47 66 66 65 63 63 59 57 55 54 60 62 72 75 69 71 95 97 95 85 86 90 90 86 79 84 89 87 99
42 46 51 58 62 61 61 59 56 53 48 53 53 62 68 62 59 59 64 64 62 54 45 42 54 57 69 80 76 72 68 90 92 92 90 91 95 98 88 94 92 94 99
39 42 47 54 61 63 62 61 57 55 54 51 53 56 64 73 68 62 63 65 59 47 45 46 50 57 70 83 78 72 62 65 84 84 83 84 90 94 93 97 90 98 100
39 41 43 50 58 64 63 64 62 59 58 55 54 54 57 59 72 77 50 56 51 46 48 49 50 66 76 81 75 77 72 64 78 78 76 78 81 87 93 93 96 88 94
42 40 41 45 52 61 64 65 62 61 59 59 58 59 57 56 61 73 84 63 51 49 51 50 50 66 76 76 75 74 72 68 66 68 74 72 69 75 80 85 89 92 93
44 45 45 42 48 54 59 61 65 64 61 62 60 62 62 61 63 66 81 78 71 54 47 50 49 54 64 70 68 64 66 61 57 55 69 70 71 73 79 71 79 91 91
44 44 47 46 47 54 57 58 58 59 60 60 60 60 62 62 61 62 69 77 83 62 53 46 50 52 58 60 62 63 62 57 52 46 59 67 73 79 70 73 82 92 90
43 44 47 48 46 50 51 51 55 58 58 59 58 57 59 60 62 61 64 71 87 80 61 52 50 52 55 57 59 63 62 59 56 49 47 44 44 48 66 68 81 88 92
46 45 46 47 47 49 50 50 52 53 56 56 58 60 58 56 60 61 61 62 71 89 89 58 51 54 58 61 58 58 58 59 59 51 47 46 45 44 51 65 75 76 94
50 48 47 46 48 50 49 48 48 48 51 51 53 54 54 54 55 57 60 61 63 71 91 68 56 56 52 56 61 59 57 59 58 55 51 48 51 46 45 57 63 65 73
52 51 50 48 48 48 48 46 45 44 45 46 47 48 49 51 52 54 55 58 62 68 86 69 65 59 55 56 57 59 60 57 52 53 54 48 48 51 49 51 64 68 64
54 53 51 50 49 48 48 48 47 46 46 45 44 45 45 47 49 50 54 55 56 58 71 80 68 65 62 54 56 58 57 56 53 47 46 50 46 46 46 54 61 63 66
61 59 57 57 56 55 54 52 52 51 51 50 49 49 48 47 47 46 47 49 51 55 62 70 74 62 62 59 58 54 54 55 55 46 44 50 50 50 39 41 62 74 68
67 68 70 69 68 68 66 65 62 59 57 57 57 56 56 55 53 51 50 49 50 52 55 63 74 71 64 58 60 58 58 52 53 50 45 51 49 46 39 39 55 74 75
30 32 30 29 34 42 62 65 64 66 62 58 56 60 66 75 71 65 61 60 60 62 59 64 72 72 71 65 62 53 60 56 56 55 52 47 50 47 42 46 50 54 59
23 25 26 28 29 30 31 30 44 46 46 46 45 47 58 65 68 76 82 82 81 86 89 90 97 98 87 71 65 63 61 68 81 56 57 54 51 50 45 47 46 46 38
26 27 27 29 30 32 31 34 41 55 57 53 52 52 58 70 70 54 59 58 70 83 88 86 93 99 97 92 77 71 70 71 70 58 59 56 50 54 48 55 56 52 49
31 32 33 33 34 34 33 32 35 40 44 42 44 49 50 57 64 69 67 66 71 84 84 84 85 85 90 94 97 85 74 74 72 69 67 68 59 56 46 49 59 53 55
37 36 34 33 33 32 31 31 32 37 43 42 40 41 58 57 60 64 74 72 73 76 75 69 61 59 69 98 99 100 100 100 96 84 72 71 65 61 52 50 56 55 55
38 38 38 36 36 35 35 33 32 39 42 43 43 48 53 60 65 66 68 71 80 78 77 74 71 72 81 92 73 94 100 100 98 98 87 82 73 68 67 56 48 55 54